Location: Peebles
(55.6412°N, 3.1714°W)
Time: 18:22:30
(UTC+01:00)

USA 281 - Pass Details

Date: 29 January 2022
Orbit: 1070 x 1089 km, 106.0° (Epoch: 25 March)

Event Time Altitude Azimuth Distance (km) Brightness Sun altitude
Rises 02:35:18 0° 29° (NNE) 3,906 6.9 -45.1°
Reaches altitude 10° 02:37:49 10° 30° (NNE) 2,947 6.0 -44.8°
Enters shadow 02:40:28 26° 32° (NNE) 1,992 4.9 -44.5°
